Regional Weather Roundup
Issued by NWS

Home | Current Version | Previous Version | Graphics & Text | Print | Product List | Glossary On
Versions: 1 2 3 4 5 6 7 8 9 10 11 12 13 14 15 16 17 18 19 20 21 22 23 24 25 26 27 28 29 30 31 32 33 34 35 36 37 38 39 40 41 42 43 44 45 46 47 48 49 50
000
ASUS45 KSLC 230610
RWRUT

UTAH REGIONAL WEATHER ROUNDUP
NATIONAL WEATHER SERVICE SALT LAKE CITY UT
1100 PM MST SUN JAN 22 2017

UTZ001>011-023>025-230700-

NORTHERN UTAH

CITY           SKY/WX    TMP DP  RH WIND       PRES   REMARKS
BRIGHAM CITY     N/A     34  32  92 S7        29.71S WCI  28
HILL AFB       LGT SNOW  32  32  97 S7        29.69S FOG     WCI  26
LOGAN          LGT SNOW  29  29 100 N3        29.69F FOG
OGDEN          LGT SNOW  32  31  96 S3        29.69F FOG
SALT LAKE CITY CLOUDY    36  31  82 S13       29.68S WCI  27
TOOELE VALLEY  CLOUDY    41  32  70 S23G29    29.66F
WENDOVER       CLOUDY    28  28 100 CALM      29.67F
HEBER CITY     LGT SNOW  28  27  93 CALM      29.70F
WEST JORDAN    CLOUDY    34  34 100 SE24      29.68F WCI  21

$$

UTZ011>015-024>027-230700-

CENTRAL/NORTHEAST UTAH

CITY           SKY/WX    TMP DP  RH WIND       PRES   REMARKS
PROVO AIRPORT  FLURRIES  33  30  88 SE10      29.75F WCI  25
MOAB/CANYONLAN CLOUDY    34  31  88 SE13      29.86F WCI  25
DELTA          CLOUDY    37  30  75 S29G36    29.70F WCI  25
PRICE          CLOUDY    27  26  96 CALM      29.82F
ROOSEVELT      LGT SNOW  25  23  93 CALM      29.87F
VERNAL         CLOUDY    24  21  88 W3        29.84F FOG

$$

UTZ013>016-019>022-027-230700-

SOUTHERN UTAH

CITY           SKY/WX    TMP DP  RH WIND       PRES   REMARKS
BRYCE CANYON   SNOW      24  22  91 S22G31    29.85F VSB 1/2 WCI   9
CEDAR CITY     PTCLDY    33  27  78 SW22G32   29.73R WCI  21
MILFORD        PTCLDY    35  28  75 S16G28    29.73R WCI  25
ST GEORGE      CLOUDY    45  34  65 SE13      29.89F
HANKSVILLE     CLOUDY    36  32  87 MISG      29.87F
BLANDING       CLOUDY    29  29 100 SE10      30.10S WCI  20

$$

REGIONAL REPORTS     COLORADO/ARIZONA

CITY           SKY/WX    TMP DP  RH WIND       PRES   REMARKS
CRAIG, CO      CLOUDY    27  20  75 NE10      29.82S WCI  17
GRAND JUNCTION CLOUDY    33  30  88 SE16G25   29.88F WCI  23
RIFLE, CO      CLOUDY    29  28  96 N3        29.90F
MONTROSE, CO   FLURRIES  29  28  96 CALM      29.98F
CORTEZ, CO     LGT SNOW  30  24  78 VRB3      30.04F
COLORADO CITY  CLOUDY    36  34  93 SE15      29.92F WCI  26
PAGE, AZ       CLOUDY    37  32  82 CALM      29.95F
GRAND CANYON   CLOUDY    29  28  96 S9        29.98F WCI  20
KINGMAN, AZ    CLOUDY    45  28  51 E18G26    29.92F
FLAGSTAFF, AZ  LGT SNOW  27  25  92 SW18      30.06S FOG     WCI  14

$$

REGIONAL REPORTS    NEVADA/IDAHO/WYOMING

CITY           SKY/WX    TMP DP  RH WIND       PRES   REMARKS
LAS VEGAS, NV  CLOUDY    49  40  71 E3        29.79F
ELY, NY        LGT SNOW  31  27  85 S22G30    29.62S FOG     WCI  18
ELKO, NV       CLOUDY    34  30  85 W3        29.57F
POCATELLO, ID  FLURRIES  34  30  85 S8        29.67S WCI  27
BURLEY, ID     LGT SNOW  34  31  88 SE6       29.63F FOG     WCI  29
FORT BRIDGER,  LGT SNOW  19  19 100 CALM      29.74F VSB 1
EVANSTON, WY   LGT SNOW  19  15  84 E13       29.67F VSB 3/4 WCI   6
ROCK SPRINGS,  LGT SNOW  26  19  74 S15       29.71F WCI  14

$$



USA.gov is the U.S. government's official web portal to all federal, state and local government web resources and services.